Погода в Ужгороде

Погода в Ужгороде : погода сейчас, прогноз погоды и архив. Всё, что Вы хотите узнать о погоде в Ужгороде!

Поиск расширенной информации на нашем сайте:

Другие новости

Новости СМИ2

Главная страница сайта

Новости сайта

02.10.2013

Напоминаем, что на нашем новом сайте вы можете получить высокодетализированные прогнозы погоды по пунктам России, СНГ и мира (включающие важные для авиации метеовеличины, такие как направление и скорость ветра, видимость, явления погоды, количество и форма облачности, нижняя и верхняя граница облачности), а также ознакомиться с разнообразными материалами по авиационной метеорологии и подборкой полезных ссылок на эту тему.

Сайт Метеоцентр.Азия посвящён разработке технологий оптимизации авиаметеорологического обслуживания, включая проектирование и перспективное создание нескольких автоматизированных авиаметеорологических систем:
- система выпуска высокодетальных прогностических карт явлений погоды для нижнего воздушного пространства по России и ближнему зарубежью;
- система верификации прогнозов TAF (выпускаемых синоптиками официальных АМСГ РФ и ближнего зарубежья) и AUTOTAF (выпускаемых сайтом Метеоцентр.Азия) - выявление ошибок, онлайн-сопоставление с фактической погодой METAR, автоматическое внесение коррективов в прогнозы при резком отклонении фактической погоды от прогноза, подсчёт оправдываемости прогнозов по элементам и в целом;
- система обработки, анализа и отображения авиаметеорологической информации для применения провайдерами метеорологической информации.


Погода в Ужгороде - сегодня

Время (UTC), дата Ветер
(°,м/с) 
Видим.   Явления Облачность Т
(°С)
Тd
(°С)
f(%) Тe
(°С)
Pmin
(гПа)
dP
(гПа)
Po
(мм)
O2
(г/м3)
Тmin Tmax R s Состояние
почвы
15 19.01.17 320 (СЗ) 10 км    ясно 
-3.7 -8.1 71 -3  1037.6  -0.1  767  314           
18 19.01.17 тихо ()   10 км    ясно 
-11.1 -12.4 90 -11  1038.2  0.2  767  323    -2.3       
21 19.01.17 тихо ()   2000 м  дымка  ясно 
-14 -14.6 95 -14  1039.2  0.7  767  327           
00 20.01.17 тихо ()   4000 м  дымка  ясно 
-14.6 -15.2 95 -15  1039  -0.2  767  328           
03 20.01.17 тихо ()   4000 м  дымка  ясно 
-16 -17.3 90 -16  1039.1  767  330           
06 20.01.17 тихо ()   10 км    3/0 верхняя 
[Ci fib]
-18.4 -19.6 90 -18  1039.7  0.5  768  333  -18.5      12  равномерный
мокрый или
старый снег
100% 
09 20.01.17 тихо ()   10 км    8/0 средняя 
[Ac trans]
-11.1 -11.7 95 -11  1039.8  0.6  768  324           
12 20.01.17 280 (З) 10 км    8/8 1380 м 
[Sc]
-7.5 -9.2 88 -9  1038.7  -1  767  319           
15 20.01.17 тихо ()   10 км    8/8 1200 м 
[Sc]
-6.4 -8.3 86 -6  1037.7  -0.8  767  317           
18 20.01.17 тихо ()   10 км    10/10 1000 м 
[Sc]
-5.9 -7.8 86 -6  1037.5  -0.2  767  317    -5.2       
21 20.01.17 тихо ()   10 км    10/10 900 м 
[Sc]
-5.2 -6.2 93 -5  1037  -0.4  766  315           
00 21.01.17 тихо ()   10 км    10/10 930 м 
[Sc]
-5.3 -6.3 93 -5  1036.4  -0.6  766  315           
03 21.01.17 тихо ()   10 км    10/10 800 м 
[Sc]
-5.2 -6.6 90 -5  1036  -0.4  765  315           
06 21.01.17 тихо ()   4000 м  дымка  10/10 750 м 
[Sc]
-5.3 -6.7 90 -5  1036.1  0.1  766  315  -6      12  мокрый или
старый снег
50-90% 
09 21.01.17 тихо ()   4000 м  дымка  10/10 570 м 
[Sc]
-4.5 -5.8 91 -5  1036.9  0.8  766  315           
12 21.01.17 290 (З) 4000 м    9/9 840 м 
[Sc]
-3.4 -7 76 -5  1035.8  -1.1  765  313           
15 21.01.17 290 (З) 4000 м  дымка  10/10 900 м 
[Sc]
-3.4 -7 76 -3  1035.1  -0.7  765  313           
18 21.01.17 тихо ()   4000 м  дымка  10/10 840 м 
[Sc]
-3.5 -6.3 81 -4  1035.8  0.7  765  313    -2.6       
21 21.01.17 тихо ()   4000 м  дымка  10/10 840 м 
[Sc]
-3.6 -5.8 85 -4  1036.4  0.6  766  313           
00 22.01.17 тихо ()   4000 м  дымка  10/10 600 м 
[Sc]
-3.5 -4.3 94 -4  1036.3  -0.1  766  313           
03 22.01.17 тихо ()   4000 м  дымка  10/10 630 м 
[Sc]
-3.5 -4.9 90 -4  1036.2  -0.1  766  313           
06 22.01.17 тихо ()   4000 м  дымка  10/10 600 м 
[Sc]
-3.1 -3.5 97 -3  1036.3  0.2  766  313  -3.7      11  равномерный
мокрый или
старый снег
100% 
09 22.01.17 тихо ()   4000 м  дымка  10/10 540 м 
[Sc]
-1.9 -3 92 -2  1037.1  0.8  766  311           
12 22.01.17 тихо ()   4000 м  дымка  10/10 500 м 
[Sc]
-0.3 -5.2 69 -0  1036.1  -0.9  766  309           
15 22.01.17 тихо ()   4000 м  дымка  10/10 630 м 
[Sc]
-0.7 -5.3 71 -1  1035.7  -0.4  765  310           
Время (UTC), дата Ветер
(°,м/с) 
Видим.   Явления Облачность Т
(°С)
Тd
(°С)
f(%) Тe
(°С)
Pmin
(гПа)
dP
(гПа)
Po
(мм)
O2
(г/м3)
Тmin Tmax R s Состояние
почвы

Для получения пояснительной информации подведите курсор к названию столбца.

ПОГОДА в Ужгороде - архив

Всё, что Вы хотите узнать о погоде в Ужгороде - удобно и подробно!

Выберите нужную дату (начиная с 1 января 2015* года) и нажмите кнопку "Найти".
Будут отображены архивные сводки погоды по пункту Ужгород, начиная с указанной даты.


Отображать данные в формате CSV (для использования в таблицах Excel)


Внимание! Наш архив погоды предназначен исключительно для личного некоммерческого использования в познавательных целях. Если Вам необходимы официальные справки о состоянии погоды (для производственных, юридических, коммерческих и т.п. целей), обращайтесь в органы Росгидромета.

*Примечание: данная дата относится к архиву по метеостанциям СССР (Россия, СНГ, Балтия).
Архив по метеостанциям Зарубежной Европы и Азии (кроме Китая) хранится 10 дней, по другим регионам земного шара (Китай, Африка, Америка, Австралия, Океания) - 1 день.

Ужгород - район местоположения метеостанции


Название, широта, долгота, высота метеостанции:
Ужгород 48.6°ш. 22.3°д. 124 м над ур. моря [Украина]

Дополнительная информация

В oтличие oт бoльшинства пoгoдных сайтoв мы публикуем пoдрoбную метеoинфoрмацию в детальнoм прoфессиoнальнoм фoрмате.

Характеристики температуры и влажнoсти вoздуха измеряются на высoте 2 м в тени вдали oт зданий и деревьев.
Скoрoсть ветра измеряется на высoте 10 м (на урoвне рoста челoвека скoрoсть ветра ниже в 1.5-2 раза). Если метеoстанция нахoдится в гoрoде или в лесу, тo скoрoсть ветра занижена на 2-4 м/с пo сравнению с oткрытым местoм. Скoрoсть ветра над акватoриями крупных рек и oзёр, а также на вершинах хoлмoв на 2-5 м/с выше, чем в oбычных услoвиях.
Атмoсфернoе давление в разных тoчках местнoсти мoжет значительнo oтличаться oт давления на метеoстанции, в зависимoсти oт услoвий рельефа (при пoдъёме на 10 м давление пoнижается примернo на 1 мм рт.ст.).